www.pogodaiklimat.ru

Погода и климат >> Архив погоды >> Канада >> Robertson Lake


ПОГОДА в Robertson Lake

  • Прогноз погоды в Robertson Lake
  • Монитор погоды в Robertson Lake
  • Климат города

АРХИВ ПОГОДЫ в Robertson Lake

Время (UTC), дата Ветер
(напр.,м/с)
 
Видим.   Явления Облачность Т
(С)
Тd
(С)
f
(%)
Тe
(С)
Тes
(С)
Комфортность P
(гПа)
Po
(гПа)
Тmin
(С)
Tmax
(С)
R
(мм)
R24
(мм)
S
(см)
06 12.10 СЗ 1 н/о н/о -7.5 -8.2 95 -8 -8 1009.4 978.3 -10.7 -2.9 8
09 12.10 СВ 5 н/о н/о -6.3 -7.1 94 -14 -14 1009.1 978.1
12 12.10 СВ 6 н/о н/о -7.0 -7.5 96 -15 -15 1009.3 978.1 -10.7 -2.9 2
15 12.10 С 10 н/о н/о -7.4 -7.8 97 -18 -18 1010.3 979.0
18 12.10 С 6 н/о н/о -6.6 -7.0 97 -15 -15 1011.9 980.6 -10.7 -6.2
21 12.10 С 9 н/о н/о -5.2 -6.4 91 -14 -14 1012.8 981.6
00 13.10 С 7 н/о н/о -7.4 -8.1 95 -16 -16 1015.1 983.7 -7.8 -5.0
03 13.10 С 7 н/о н/о -8.1 -8.6 96 -17 -17 1016.6 985.1
06 13.10 С 6 н/о н/о -7.2 -8.2 93 -16 -16 1017.6 986.2 -8.6 -5.0 16
09 13.10 СЗ 5 н/о н/о -7.3 -9.1 87 -15 -15 1018.7 987.3
12 13.10 З 6 н/о н/о -7.5 -8.2 95 -16 -16 1019.5 988.0 -8.6 -5.0 1
15 13.10 СЗ 3 н/о н/о -7.3 -8.9 88 -13 -13 1020.0 988.4
18 13.10 З 5 н/о н/о -6.6 -8.1 89 -14 -14 1019.9 988.4 -8.6 -6.6
21 13.10 З 7 н/о н/о -6.6 -7.9 90 -15 -15 1019.8 988.3
00 14.10 СЗ 9 н/о н/о -8.0 -9.3 90 -18 -18 1019.9 988.3 -8.0 -6.0
03 14.10 З 6 н/о н/о -9.0 -10.1 92 -18 -18 1019.4 987.8
06 14.10 С 4 н/о н/о -8.5 -9.1 95 -15 -15 1019.4 987.9 -10.4 -6.0 22
09 14.10 СВ 3 н/о н/о -10.3 -10.8 96 -16 -16 1019.9 988.3
12 14.10 СВ 2 н/о н/о -12.9 -13.7 94 -18 -18 1019.9 988.2 -12.9 -6.0 2
15 14.10 В 2 н/о н/о -13.6 -14.5 93 -17 -17 1019.2 987.4
18 14.10 ЮВ 2 н/о н/о -12.8 -13.7 93 -17 -17 1017.9 986.2 -13.8 -8.4
21 14.10 ЮВ 5 н/о н/о -12.2 -13.0 94 -20 -20 1015.9 984.2
00 15.10 ЮВ 7 н/о н/о -11.6 -12.5 93 -21 -21 1013.5 981.8 -13.8 -11.6
03 15.10 ЮВ 8 н/о н/о -10.5 -11.4 93 -20 -20 1010.5 978.9
06 15.10 ЮВ 8 н/о н/о -9.8 -10.7 93 -20 -20 1008.5 977.1 -13.8 -8.4 5
09 15.10 ЮВ 9 н/о н/о -9.0 -9.9 93 -19 -19 1007.3 975.9
12 15.10 В 6 н/о н/о -8.6 -9.4 94 -17 -17 1008.2 976.8 -11.7 -8.4 0.2 6
15 15.10 СВ 10 н/о н/о -10.6 -11.4 94 -22 -22 1009.1 977.7 0.3
18 15.10 СВ 9 н/о {осадки} н/о -11.1 -12.1 92 -22 -22 1012.0 980.5 -12.8 -8.6 0.5
21 15.10 С 8 н/о н/о -13.8 -15.1 90 -24 -24 1015.4 983.7
00 16.10 С 6 н/о н/о -14.0 -15.1 91 -23 -23 1017.6 985.9 -15.2 -8.6
03 16.10 СЗ 6 н/о н/о -18.8 -20.4 87 -29 -29 1018.9 986.9
06 16.10 З 7 н/о н/о -13.9 -14.9 92 -24 -24 1018.3 986.5 -19.0 -8.6 17
09 16.10 СЗ 6 н/о н/о -10.9 -11.8 93 -19 -19 1018.7 986.9
12 16.10 СЗ 13 н/о н/о -11.3 -12.4 92 -24 -24 1018.9 987.0 -19.0 -8.6 10
15 16.10 СЗ 7 н/о н/о -11.8 -12.9 92 -21 -21 1019.9 987.8
18 16.10 СЗ 8 н/о н/о -10.4 -11.6 91 -20 -20 1020.4 988.5 -19.0 -9.8
21 16.10 СЗ 9 н/о н/о -11.1 -12.6 89 -21 -21 1020.9 989.1
00 17.10 СЗ 5 н/о н/о -10.4 -11.3 93 -18 -18 1021.2 989.4 -13.9 -10.2
03 17.10 СЗ 6 н/о н/о -8.1 -9.3 91 -17 -17 1020.1 988.4
06 17.10 З 8 н/о н/о -10.5 -11.3 94 -20 -20 1019.7 988.0 -13.9 -7.9 12
09 17.10 З 8 н/о н/о -9.7 -10.6 93 -19 -19 1019.0 987.3
12 17.10 З 5 н/о н/о -11.3 -12.5 91 -19 -19 1018.1 986.4 -11.3 -7.9 4
15 17.10 ЮЗ 4 н/о н/о -16.4 -17.7 90 -25 -25 1015.6 983.9
18 17.10 ЮЗ 4 н/о н/о -14.4 -16.6 83 -22 -22 1014.1 982.4 -16.9 -9.7
21 17.10 ЮЗ 6 н/о н/о -13.1 -15.0 86 -22 -22 1011.4 979.9
00 18.10 Ю 6 н/о н/о -14.6 -16.0 89 -24 -24 1009.6 978.0 -16.9 -11.3
03 18.10 Ю 4 н/о н/о -10.3 -12.2 86 -17 -17 1007.2 975.7
06 18.10 Ю 5 н/о н/о -9.6 -10.9 90 -18 -18 1005.4 974.0 -16.9 -9.6 9
09 18.10 Ю 5 н/о н/о -9.1 -10.1 92 -17 -17 1003.3 972.0
12 18.10 Ю 6 н/о н/о -8.2 -8.8 95 -16 -16 1001.4 970.2 -14.6 -9.6 0.2 5
15 18.10 Ю 6 н/о н/о -7.1 -7.8 95 -15 -15 999.0 968.0 0.4
18 18.10 Ю 3 н/о {осадки} н/о -5.1 -6.1 93 -11 -11 997.7 966.9 -15.1 -5.1 0.4
21 18.10 З 4 н/о н/о -4.8 -5.2 97 -11 -11 997.8 967.0
00 19.10 С 9 н/о {осадки} н/о -6.2 -6.7 96 -16 -16 999.0 968.1 -9.8 -4.5 0.2
03 19.10 С 15 н/о н/о -9.7 -10.4 95 -22 -22 1002.8 971.7

 

Местоположение метеостанции Robertson Lake (Канада): широта 65.10 долгота -102.40 высота над уровнем моря 244 м.

В архиве по умолчанию представлена погода в Robertson Lake за последнюю неделю. Архивные данные за месяц целиком и за предыдущие месяцы, начиная с января 2011 года, Вы можете получить, выбрав интересующий диапазон дат из раскрывающегося списка и нажав кнопку "Ввод!".


*Определитесь, кто Вы:
робот инопланетянин человек

Внимание! Время в таблицах - всемирное. Для получения местного времени необходимо прибавить поправку, которая в Robertson Lake равна -6 ч.

Смотрите также архив погоды в соседних городах и на ближайших метеорологических станциях:

Погода в Dubawnt Lake (Канада) (211 км)
Погода в Hanbury River ARS (Канада) (215 км)
Погода в Back River MAPS (Канада) (292 км)
Погода в Baker Lake Airport (Канада) (314 км)
Погода в Baker Lake Climate (Канада) (316 км)
Погода в Hat Island (Канада) (373 км)
Погода в Lupin (Канада) (413 км)
Погода в Lupin (maps) (Канада) (413 км)
Погода в Fort Reliance (aut) (Канада) (422 км)
Погода в Cambridge Bay Gsn (Канада) (460 км)

Пояснения к столбцам:

Ветер - указаны скорость ветра в м/с - средняя за 10 мин, порывы в срок и между сроками (в фигурных скобках) и направление, откуда дует ветер: С - северный, СВ - северо-восточный, В - восточный, ЮВ - юго-восточный, Ю - южный, ЮЗ - юго-западный, З - западный, СЗ - северо-западный.
Видимость - горизонтальная дальность видимости в метрах или километрах. При видимости от 1 до 10 км при отсутствии осадков обычно наблюдается дымка, при ухудшении видимости до 1 км и менее - туман. В сухую погоду видимость может ухудшаться дымом, пылью или мглою.
Явления - указаны атмосферные явления, наблюдавшиеся в срок или в последний час перед сроком; фигурными скобками обозначены явления, наблюдавшиеся между сроками (за 1-3 часа до срока); квадратными скобками обозначены град или гололедные отложения с указанием их диаметра в мм.
Облачность - указаны через наклонную черту общая и нижняя облачность в баллах и высота нижней границы облаков в метрах; квадратными скобками обозначены формы облаков: Ci - перистые, Cs - перисто-слоистые, Cc - перисто-кучевые, Ac - высококучевые, As - высокослоистые, Sc - слоисто-кучевые, Ns - слоисто-дождевые, Cu - кучевые, Cb - кучево-дождевые. Подробнее классификацию облаков см. в Атласе облаков (PDF).
T - Температура воздуха - температура, измеренная на высоте 2 м над землей.
Td - Температура точки росы - температура, при понижении до которой содержащийся в воздухе водяной пар достигнет насыщения.
f - Относительная влажность воздуха - влажноcть воздуха, измеренная на высоте 2 м над землей.
Te - Эффективная температура - температура, которую ощущает одетый по сезону человек в тени. Характеристика душности погоды. При расчете учитывается влияние влажности воздуха и скорости ветра на теплоощущения человека.
Tes - Эффективная температура на солнце - температура, которую ощущает человек, с поправкой на солнечный нагрев. Характеристика знойности погоды. Зависит от высоты солнца над горизонтом, облачности и скорости ветра. Ночью, в пасмурную погоду, а также при ветре 12 м/с и более поправка равна нулю.
P - Атмосферное давление - приведенное к уровню моря атмосферное давление.
Po - Атмосферное давление - измеренное на уровне метеостанции атмосферное давление.
Tmin - Минимальная температура - минимум температуры воздуха на высоте 2 м над землей.
Tmax - Максимальная температура - максимум температуры воздуха на высоте 2 м над землей.
R - Количество осадков - Количество выпавших осадков за период времени, мм. При наведении курсора мыши на число - период времени, за который выпало указанное количество осадков.
R24 - Количество осадков - Количество выпавших осадков за 24 часа, мм.
S - Снежный покров - Высота снежного покрова, см. При наведении курсора мыши на число - состояние снежного покрова и степень покрытия местности в баллах.